GOES 19

Last updated on Wed Sep 17 2025 00:02:23 GMT+0000 (Coordinated Universal Time)

1 60133U 24119A 25259.06921811 -.00000267 00000+0 00000+0 0 9995 2 60133 0.0302 12.8458 0000828 250.5397 41.6033 1.00272174 4215
UTC large
Height (km)
Speed (km/s)
/
Latitude / Longitude
Inclination (degrees)
Orbital Period (minutes)
Azimuth
Elevation
Range (km)
Doppler Factor

Next 0 passes for location: London (51.5072 / 0.1276)

Sorry there are no passes over London.